| time (UTC) | temp C | wind direction | speed KPH | gust KPH | rain 1hr cm | rain 24hr cm | rain mn cm | humidity % | barometer mb |
| 20260505061555 | 7 | 313 | 4.8 | 12.9 | 0.00 | 0.00 | 0.00 | 57 | 1010.2 |
| 20260505060034 | 7 | 26 | 4.8 | 14.5 | 0.00 | 0.00 | 0.00 | 58 | 1010.0 |
| 20260505054532 | 7 | 352 | 1.6 | 14.5 | 0.00 | 0.00 | 0.00 | 61 | 1010.0 |
| 20260505053030 | 7 | 359 | 4.8 | 9.7 | 0.00 | 0.00 | 0.00 | 64 | 1009.9 |
| 20260505051532 | 7 | 359 | 3.2 | 9.7 | 0.00 | 0.00 | 0.00 | 64 | 1009.9 |
| 20260505041523 | 6 | 15 | 1.6 | 11.3 | 0.00 | 0.00 | 0.00 | 67 | 1009.4 |
| 20260505040023 | 6 | 281 | 4.8 | 14.5 | 0.00 | 0.00 | 0.00 | 67 | 1009.3 |
| 20260505034546 | 7 | 325 | 1.6 | 16.1 | 0.00 | 0.00 | 0.00 | 69 | 1009.2 |
| 20260504231541 | 7 | 252 | 14.5 | 27.4 | 0.00 | 0.15 | 0.00 | 84 | 1008.8 |
| 20260504230040 | 7 | 240 | 14.5 | 29.0 | 0.00 | 0.15 | 0.00 | 84 | 1008.9 |
| 20260504224538 | 7 | 238 | 17.7 | 30.6 | 0.00 | 0.15 | 0.00 | 84 | 1009.0 |
| 20260504223038 | 8 | 200 | 12.9 | 33.8 | 0.00 | 0.15 | 0.00 | 83 | 1008.9 |
| 20260504221538 | 8 | 225 | 9.7 | 27.4 | 0.00 | 0.15 | 0.00 | 84 | 1009.0 |
| 20260504220032 | 8 | 223 | 12.9 | 33.8 | 0.00 | 0.15 | 0.00 | 83 | 1009.0 |
| 20260504214530 | 8 | 246 | 11.3 | 33.8 | 0.00 | 0.15 | 0.15 | 83 | 1009.1 |
| 20260504213029 | 8 | 248 | 16.1 | 38.6 | 0.00 | 0.15 | 0.15 | 83 | 1009.0 |
| 20260504211527 | 8 | 232 | 16.1 | 32.2 | 0.00 | 0.15 | 0.15 | 82 | 1008.9 |
| 20260504210028 | 8 | 231 | 14.5 | 38.6 | 0.00 | 0.15 | 0.15 | 82 | 1008.9 |
| 20260504204531 | 8 | 256 | 16.1 | 32.2 | 0.00 | 0.15 | 0.15 | 82 | 1008.9 |
| 20260504203026 | 8 | 283 | 24.1 | 40.2 | 0.00 | 0.15 | 0.15 | 82 | 1008.8 |
| 20260504201523 | 8 | 275 | 12.9 | 38.6 | 0.00 | 0.15 | 0.15 | 81 | 1008.8 |
| 20260504200022 | 8 | 223 | 16.1 | 32.2 | 0.00 | 0.15 | 0.15 | 80 | 1008.8 |
| 20260504194520 | 8 | 278 | 16.1 | 35.4 | 0.00 | 0.15 | 0.15 | 79 | 1009.0 |
| 20260504193019 | 8 | 271 | 14.5 | 35.4 | 0.00 | 0.15 | 0.15 | 78 | 1008.9 |
| 20260504191518 | 8 | 250 | 16.1 | 33.8 | 0.00 | 0.15 | 0.15 | 77 | 1008.9 |
| 20260504190019 | 8 | 244 | 14.5 | 38.6 | 0.00 | 0.15 | 0.15 | 76 | 1008.9 |
| 20260504184522 | 9 | 240 | 20.9 | 33.8 | 0.00 | 0.15 | 0.15 | 75 | 1008.9 |
| 20260504183014 | 9 | 236 | 16.1 | 32.2 | 0.00 | 0.15 | 0.15 | 75 | 1008.8 |
| 20260504181515 | 9 | 222 | 12.9 | 33.8 | 0.00 | 0.15 | 0.15 | 73 | 1008.9 |
| 20260504180012 | 10 | 235 | 19.3 | 35.4 | 0.00 | 0.15 | 0.15 | 73 | 1008.7 |
| 20260504174509 | 10 | 233 | 20.9 | 32.2 | 0.00 | 0.15 | 0.15 | 73 | 1008.7 |
| 20260504173010 | 10 | 236 | 17.7 | 33.8 | 0.00 | 0.15 | 0.15 | 74 | 1008.9 |
| 20260504171507 | 10 | 250 | 14.5 | 29.0 | 0.00 | 0.15 | 0.15 | 73 | 1008.9 |
| 20260504081538 | 10 | 282 | 9.7 | 29.0 | 0.00 | 0.15 | 0.15 | 82 | 1006.5 |